User: anonymous   Login
Location: Unspecified
(0.0000°N, 0.0000°E)
Time: 01:25:45
(UTC+00:00)
Language:

DANDE - Orbit

View from above orbital plane
View from above orbital plane
View from above satellite
View from above satellite

Ground track
Ground track

The orbit data is extracted from the following two-line orbital elements,

1 39267U 13055C   17266.60667096 +.00003895 +00000-0 +11613-3 0  9993
2 39267 081.0085 285.7269 0710329 348.4011 010.1494 14.17750361202630
Epoch (UTC): 23 September 2017 14:33:36
Eccentricity: 0.0710329
inclination: 81.0085°
perigee height: 321 km
apogee height: 1345 km
right ascension of ascending node: 285.7269°
argument of perigee: 348.4011°
revolutions per day: 14.17750361
mean anomaly at epoch: 10.1494°
orbit number at epoch: 20263

The dashed part of the orbit path shows where the satellite is in the earth's shadow,  

DLR